Back to catalog

CZ-4 DEB

AlivePO
NORAD 20862·DEBRIS·🇨🇳 China

Launched Sep 3, 1990 from Taiyuan Satellite Launch Center

Loading…

Next Passes (next 24 hours)

TLE

FreshSource: Space-Track

Epoch: Sep 14, 2026, 11:21 UTC

1 20862U 90081AA  26257.47340557  .00000089  00000-0  14064-3 0  9998
2 20862  98.9276  82.7946 0231157 329.9919  57.0614 13.62178651785348

Track CZ-4 DEB in real time with AllMySat

Download on the App Store